[[{"header":{"parameterUnit":"m.s-1","parameterCategory":1,"la1":30.2991,"la2":30.254,"lo1":-89.0895,"lo2":-89.0444,"dy":0.0017,"dx":0.0017,"nx":28,"ny":28,"refTime":"2025-09-06T21:00:00:Z","depth":0,"parameterNumber":2,"parameterNumberName":"U-component_of_WINDS"},"data":[0,0,0,0,0,0,0,0,0,0,0,0,0,0,0,0,0,0,0,0,0,0,0,0,0,0,0,0,0,0,0,0,0,0,0,0,0,0,0,0,0,0,0,0,0,0,0,0,0,0,0,0,0,0,0,0,0,0,-1.0186,-1.0186,0,-1.0189,-1.0189,-1.0189,-1.0168,-1.0168,-1.0167,-1.0167,-1.017,-1.017,-1.0171,0,0,0,0,0,0,0,0,0,0,0,0,0,-1.0163,-1.0164,-1.0186,-1.0186,-1.0186,-1.0189,-1.0189,-1.0189,-1.0169,-1.0168,-1.0167,-1.0167,-1.017,-1.017,-1.0171,0,0,0,0,0,0,0,0,0,0,0,0,0,-1.017,-1.0164,-1.0186,-1.0176,-1.0176,-1.0189,-1.0189,-1.0189,-1.0169,-1.0168,-1.0167,-1.0166,-1.0169,-1.017,-1.0171,-1.0194,0,0,-1.0174,-1.0174,0,0,0,0,0,0,0,0,-1.017,-1.0171,-1.0178,-1.0177,-1.0176,-1.0177,-1.0182,-1.0191,-1.0169,-1.0171,-1.0167,-1.0166,-1.0173,-1.0174,-1.0176,-1.0194,-1.0194,-1.0174,-1.0175,-1.0175,-1.0175,0,0,0,0,0,0,0,-1.0169,-1.0171,-1.0187,-1.0178,-1.0177,-1.0172,-1.0172,-1.0184,-1.0177,-1.0171,-1.017,-1.017,-1.0172,-1.0175,-1.0176,-1.0195,-1.0174,-1.0175,-1.0175,-1.0176,-1.0232,-1.0233,0,0,0,0,0,0,-1.017,-1.0171,-1.0187,-1.0187,-1.0171,-1.0173,-1.0173,-1.0178,-1.0177,-1.0176,-1.0171,-1.0169,-1.0174,-1.0175,-1.0176,-1.0204,-1.0175,-1.0176,-1.0176,-1.0231,-1.0233,-1.0234,0,0,0,0,0,0,-1.017,-1.0172,-1.0187,-1.0179,-1.018,-1.0174,-1.018,-1.0178,-1.0181,-1.0177,-1.0175,-1.0175,-1.0173,-1.0175,-1.019,-1.0203,-1.0176,-1.0177,-1.023,-1.0232,-1.0233,-1.0258,0,0,0,0,0,0,-1.0169,-1.0172,-1.0181,-1.0179,-1.0181,-1.0201,-1.0181,-1.0179,-1.0183,-1.0181,-1.018,-1.0179,-1.0173,-1.0189,-1.0191,-1.0204,-1.0178,-1.0229,-1.0231,-1.0233,-1.0256,-1.0261,-1.0264,0,0,0,0,0,-1.0169,-1.0188,-1.0181,-1.0183,-1.0191,-1.0202,-1.0203,-1.0195,-1.0184,-1.0193,-1.019,-1.0179,-1.0201,-1.019,-1.0193,-1.0206,-1.0228,-1.023,-1.0232,-1.0255,-1.026,-1.0264,0,0,0,0,0,0,-1.0191,-1.0187,-1.018,-1.0199,-1.0201,-1.0198,-1.0209,-1.02,-1.0205,-1.0203,-1.0193,-1.0193,-1.021,-1.021,-1.0198,-1.0229,-1.0213,-1.0216,-1.0229,-1.0234,-1.0237,-1.0238,-1.0179,0,0,0,0,0,-1.0198,-1.0207,-1.0203,-1.022,-1.0221,-1.0215,-1.0219,-1.0213,-1.0215,-1.0215,-1.0214,-1.0216,-1.0223,-1.0228,-1.0235,-1.0256,-1.0256,-1.0266,-1.027,-1.0273,-1.0276,-1.0288,-1.0293,-1.0241,-1.0241,-1.0241,0,0,-1.0213,-1.0212,-1.0218,-1.0224,-1.0225,-1.0235,-1.0216,-1.0227,-1.0234,-1.0217,-1.0232,-1.023,-1.0232,-1.025,-1.0258,-1.025,-1.029,-1.0276,-1.0279,-1.028,-1.0291,-1.0296,-1.03,-1.0242,-1.0242,-1.0242,0,0,-1.0245,-1.0245,-1.0259,-1.0261,-1.0262,-1.0258,-1.0261,-1.026,-1.0258,-1.0273,-1.0261,-1.0269,-1.0281,-1.0283,-1.0286,-1.0319,-1.031,-1.0321,-1.0342,-1.0353,-1.0357,-1.0361,-1.0374,-1.0378,-1.0324,-1.0324,-1.0324,0,-1.0263,-1.0277,-1.0268,-1.028,-1.0283,-1.0268,-1.0283,-1.0285,-1.0288,-1.0291,-1.0282,-1.0298,-1.0298,-1.0317,-1.0325,-1.0327,-1.0331,-1.0322,-1.0358,-1.0361,-1.0364,-1.0376,-1.0381,-1.0325,-1.0325,-1.0325,-1.0325,0,-1.03,-1.031,-1.0321,-1.0325,-1.033,-1.0343,-1.0336,-1.0342,-1.0335,-1.0332,-1.0347,-1.0346,-1.0353,-1.0356,-1.035,-1.0375,-1.037,-1.0359,-1.0343,-1.0371,-1.0382,-1.0387,-1.0327,-1.0327,-1.0326,-1.0326,0,0,-1.0347,-1.0346,-1.035,-1.0352,-1.0352,-1.036,-1.0372,-1.0379,-1.0384,-1.0387,-1.0398,-1.0409,-1.0399,-1.0402,-1.0395,-1.0405,-1.0433,-1.0393,-1.0393,-1.0402,-1.0461,-1.047,-1.0475,-1.0426,-1.0427,-1.0427,-1.0461,0,-1.0379,-1.0401,-1.0393,-1.0415,-1.0425,-1.041,-1.0421,-1.0423,-1.042,-1.0428,-1.0424,-1.0433,-1.0419,-1.0421,-1.043,-1.0427,-1.0445,-1.0425,-1.0437,-1.0437,-1.0438,-1.0481,-1.0491,-1.0523,-1.0466,-1.0466,-1.0467,0,-1.042,-1.0425,-1.0448,-1.0447,-1.0451,-1.0461,-1.0466,-1.0473,-1.0475,-1.0472,-1.0475,-1.0467,-1.0479,-1.0462,-1.048,-1.0466,-1.0471,-1.047,-1.0471,-1.0473,-1.0455,-1.0485,-1.0532,-1.0538,-1.0473,-1.0473,-1.0472,0,-1.0453,-1.0465,-1.0481,-1.0483,-1.0482,-1.0489,-1.0489,-1.049,-1.0494,-1.0499,-1.0502,-1.0508,-1.0511,-1.0516,-1.0509,-1.0497,-1.0528,-1.051,-1.0527,-1.0527,-1.0535,-1.0535,-1.0585,-1.0536,-1.0536,-1.0536,-1.0535,0,-1.0491,-1.0506,-1.0496,-1.0506,-1.0522,-1.0513,-1.0529,-1.0528,-1.0528,-1.0538,-1.0525,-1.0535,-1.0525,-1.0533,-1.0527,-1.0543,-1.0545,-1.0543,-1.0542,-1.0545,-1.0546,-1.0549,-1.0547,-1.0537,-1.0537,-1.0536,-1.0536,0,-1.0531,-1.0525,-1.0541,-1.0539,-1.0539,-1.0551,-1.055,-1.0559,-1.0555,-1.0567,-1.0569,-1.0563,-1.0572,-1.0566,-1.0575,-1.0571,-1.0592,-1.0587,-1.0592,-1.0591,-1.0608,-1.0607,-1.0663,-1.0671,-1.0616,-1.0616,-1.0617,0,-1.0556,-1.0567,-1.0566,-1.0572,-1.0573,-1.0582,-1.0586,-1.0577,-1.0582,-1.0585,-1.0594,-1.0602,-1.0608,-1.0623,-1.062,-1.0627,-1.0622,-1.0641,-1.0623,-1.0627,-1.0624,-1.0624,-1.0626,-1.0646,-1.0646,-1.0647,-1.0647,0,-1.0601,-1.0598,-1.0605,-1.0611,-1.0617,-1.0621,-1.0624,-1.0629,-1.062,-1.0627,-1.0636,-1.0641,-1.065,-1.0658,-1.0664,-1.0664,-1.0655,-1.0653,-1.0657,-1.0661,-1.0664,-1.0664,-1.0603,-1.0652,-1.0651,-1.0651,-1.0651,-1.0651,-1.0635,-1.0645,-1.0646,-1.0655,-1.0656,-1.066,-1.0668,-1.0665,-1.0673,-1.068,-1.0674,-1.0685,-1.0687,-1.0693,-1.0694,-1.0703,-1.0696,-1.0702,-1.0703,-1.0705,-1.0709,-1.0661,-1.0704,-1.0704,-1.0704,-1.0704,-1.0704,0,-1.0681,-1.0681,-1.0689,-1.0694,-1.0701,-1.069,-1.0694,-1.07,-1.071,-1.0712,-1.0718,-1.0729,-1.0737,-1.0734,-1.0742,-1.075,-1.0745,-1.0752,-1.0752,-1.0752,-1.0714,-1.071,-1.0755,-1.0755,-1.0755,-1.0755,-1.0755,-1.0755,-1.0706,-1.0722,-1.0718,-1.0735,-1.0735,-1.0746,-1.0749,-1.0752,-1.0754,-1.0767,-1.0773,-1.0771,-1.0772,-1.0779,-1.0786,-1.0785,-1.0789,-1.0797,-1.0795,-1.076,-1.0755,-1.075,-1.0746,-1.0798,-1.0798,-1.0832,-1.0832,-1.0833]},{"header":{"parameterUnit":"m.s-1","parameterCategory":1,"la1":30.2991,"la2":30.254,"lo1":-89.0895,"lo2":-89.0444,"dy":0.0017,"dx":0.0017,"nx":28,"ny":28,"refTime":"2025-09-06T21:00:00:Z","depth":0,"parameterNumber":3,"parameterNumberName":"V-component_of_WINDS"},"data":[0,0,0,0,0,0,0,0,0,0,0,0,0,0,0,0,0,0,0,0,0,0,0,0,0,0,0,0,0,0,0,0,0,0,0,0,0,0,0,0,0,0,0,0,0,0,0,0,0,0,0,0,0,0,0,0,0,0,-2.9106,-2.9105,0,-2.9079,-2.9078,-2.9078,-2.9038,-2.9038,-2.9037,-2.9036,-2.9006,-2.9006,-2.9005,0,0,0,0,0,0,0,0,0,0,0,0,0,-2.9122,-2.9122,-2.9106,-2.9105,-2.9105,-2.9079,-2.9078,-2.9078,-2.9038,-2.9038,-2.9037,-2.9036,-2.9006,-2.9006,-2.9005,0,0,0,0,0,0,0,0,0,0,0,0,0,-2.9107,-2.9122,-2.9106,-2.9082,-2.908,-2.9079,-2.9078,-2.9078,-2.9039,-2.9038,-2.9037,-2.9036,-2.9006,-2.9006,-2.9005,-2.9024,0,0,-2.9005,-2.9004,0,0,0,0,0,0,0,0,-2.9108,-2.9106,-2.9086,-2.9084,-2.9081,-2.9061,-2.9073,-2.906,-2.9039,-2.9054,-2.9036,-2.9035,-2.9025,-2.9023,-2.902,-2.9023,-2.9022,-2.9005,-2.9004,-2.9004,-2.9004,0,0,0,0,0,0,0,-2.9109,-2.9107,-2.9095,-2.9086,-2.9083,-2.9073,-2.9069,-2.907,-2.9045,-2.9053,-2.905,-2.9047,-2.9023,-2.902,-2.9019,-2.9021,-2.9005,-2.9004,-2.9004,-2.9004,-2.904,-2.9042,0,0,0,0,0,0,-2.9114,-2.9108,-2.9096,-2.9094,-2.9092,-2.9073,-2.9069,-2.9068,-2.9045,-2.9041,-2.9048,-2.9046,-2.9021,-2.9019,-2.9018,-2.904,-2.9004,-2.9004,-2.9004,-2.9039,-2.9041,-2.9042,0,0,0,0,0,0,-2.9114,-2.9113,-2.9097,-2.9101,-2.9098,-2.9074,-2.9073,-2.9068,-2.9065,-2.9042,-2.9037,-2.905,-2.902,-2.9018,-2.9024,-2.9039,-2.9004,-2.9004,-2.9038,-2.904,-2.9041,-2.9084,0,0,0,0,0,0,-2.9115,-2.9113,-2.9121,-2.9101,-2.9098,-2.9104,-2.9074,-2.9069,-2.9065,-2.9062,-2.9042,-2.9038,-2.9019,-2.9024,-2.9023,-2.9038,-2.9003,-2.9037,-2.9039,-2.9041,-2.9082,-2.9087,-2.9092,0,0,0,0,0,-2.9116,-2.9133,-2.9121,-2.912,-2.9106,-2.9105,-2.9103,-2.9082,-2.9067,-2.9074,-2.9059,-2.9039,-2.9037,-2.9025,-2.9024,-2.9038,-2.9036,-2.9038,-2.9041,-2.9079,-2.9086,-2.9092,0,0,0,0,0,0,-2.9153,-2.913,-2.9117,-2.9128,-2.9119,-2.9098,-2.9106,-2.9089,-2.9084,-2.908,-2.9054,-2.905,-2.9059,-2.9049,-2.9036,-2.9056,-2.9033,-2.9036,-2.9063,-2.907,-2.9075,-2.9078,-2.9003,0,0,0,0,0,-2.9163,-2.9165,-2.9143,-2.9155,-2.9152,-2.913,-2.9128,-2.9113,-2.9102,-2.9098,-2.9083,-2.9073,-2.907,-2.9069,-2.9065,-2.908,-2.9076,-2.9089,-2.9094,-2.9099,-2.9102,-2.9111,-2.9117,-2.905,-2.905,-2.905,0,0,-2.9183,-2.917,-2.9172,-2.9163,-2.9154,-2.9156,-2.9127,-2.913,-2.9131,-2.9098,-2.9104,-2.9093,-2.9079,-2.909,-2.9094,-2.9082,-2.9119,-2.9102,-2.9106,-2.9106,-2.9114,-2.912,-2.9126,-2.9052,-2.9052,-2.9051,0,0,-2.9221,-2.9211,-2.9221,-2.9213,-2.9201,-2.9187,-2.9189,-2.9171,-2.9163,-2.9168,-2.9144,-2.9145,-2.914,-2.9133,-2.9128,-2.9165,-2.9147,-2.9164,-2.9193,-2.9202,-2.9207,-2.9212,-2.9227,-2.9233,-2.9167,-2.9167,-2.9167,0,-2.9247,-2.925,-2.9228,-2.9233,-2.923,-2.9202,-2.9212,-2.9205,-2.9192,-2.919,-2.9177,-2.9172,-2.9161,-2.9171,-2.918,-2.9177,-2.918,-2.9167,-2.9209,-2.9213,-2.9217,-2.9231,-2.9237,-2.9169,-2.9169,-2.9169,-2.9169,0,-2.9284,-2.9286,-2.9296,-2.9286,-2.9283,-2.9291,-2.927,-2.927,-2.9256,-2.9243,-2.9249,-2.9235,-2.9229,-2.923,-2.9214,-2.9238,-2.9231,-2.9214,-2.919,-2.9226,-2.9239,-2.9244,-2.9173,-2.9172,-2.9171,-2.9171,0,0,-2.9345,-2.9323,-2.9327,-2.9323,-2.9308,-2.931,-2.9316,-2.9311,-2.9313,-2.9305,-2.9311,-2.9308,-2.9293,-2.9288,-2.9271,-2.9279,-2.9312,-2.9261,-2.926,-2.9272,-2.9339,-2.9354,-2.9361,-2.9299,-2.93,-2.9301,-2.9341,0,-2.9381,-2.9392,-2.9373,-2.9389,-2.9392,-2.9366,-2.9372,-2.9363,-2.9352,-2.9352,-2.9339,-2.9339,-2.9317,-2.9314,-2.9321,-2.9307,-2.9326,-2.9303,-2.9305,-2.9306,-2.9311,-2.9367,-2.9382,-2.9421,-2.9346,-2.9347,-2.9347,0,-2.9425,-2.9421,-2.9438,-2.9424,-2.9424,-2.943,-2.9425,-2.9426,-2.9416,-2.9407,-2.9402,-2.9384,-2.939,-2.9367,-2.9375,-2.9361,-2.936,-2.9354,-2.9355,-2.9355,-2.933,-2.9371,-2.9432,-2.9439,-2.9355,-2.9354,-2.9354,0,-2.947,-2.9469,-2.9479,-2.9476,-2.9459,-2.9465,-2.9458,-2.9447,-2.9446,-2.9441,-2.944,-2.9436,-2.9434,-2.9431,-2.9412,-2.9397,-2.9424,-2.9398,-2.9417,-2.9418,-2.9425,-2.9425,-2.9489,-2.9422,-2.9422,-2.9422,-2.9422,0,-2.9514,-2.9525,-2.95,-2.9506,-2.9519,-2.9497,-2.951,-2.95,-2.9491,-2.9496,-2.9471,-2.9476,-2.945,-2.9452,-2.9437,-2.9447,-2.9446,-2.9439,-2.9436,-2.9443,-2.9444,-2.9443,-2.944,-2.9424,-2.9423,-2.9423,-2.9423,0,-2.9567,-2.955,-2.956,-2.9544,-2.954,-2.9551,-2.9537,-2.9542,-2.9529,-2.9536,-2.9536,-2.9516,-2.9517,-2.9497,-2.9494,-2.9484,-2.9502,-2.9492,-2.9506,-2.9504,-2.9525,-2.9524,-2.9592,-2.96,-2.9526,-2.9527,-2.9528,0,-2.9597,-2.9605,-2.9591,-2.9593,-2.9588,-2.959,-2.959,-2.9569,-2.9569,-2.956,-2.9567,-2.9566,-2.9565,-2.9568,-2.9553,-2.9551,-2.9542,-2.9566,-2.9541,-2.9549,-2.9545,-2.9545,-2.9547,-2.9571,-2.9572,-2.9573,-2.9574,0,-2.9652,-2.9644,-2.9644,-2.9643,-2.9643,-2.964,-2.9636,-2.9639,-2.9615,-2.9617,-2.9619,-2.9618,-2.9616,-2.9616,-2.9611,-2.9604,-2.9586,-2.9582,-2.9586,-2.9594,-2.9603,-2.9601,-2.9522,-2.958,-2.958,-2.9579,-2.9579,-2.9579,-2.9696,-2.9703,-2.9695,-2.9697,-2.9692,-2.9689,-2.9694,-2.9683,-2.9684,-2.9681,-2.9668,-2.9673,-2.9664,-2.9656,-2.9651,-2.9654,-2.9642,-2.9648,-2.965,-2.9653,-2.9658,-2.9601,-2.9653,-2.9652,-2.9652,-2.9652,-2.9652,0,-2.9751,-2.9745,-2.9747,-2.9743,-2.9745,-2.9728,-2.9723,-2.9726,-2.973,-2.9724,-2.9724,-2.9726,-2.9727,-2.9713,-2.9712,-2.9717,-2.9709,-2.9718,-2.9718,-2.9717,-2.9667,-2.9664,-2.9725,-2.9725,-2.9725,-2.9725,-2.9725,-2.9725,-2.9781,-2.9794,-2.9785,-2.9795,-2.9788,-2.9793,-2.9792,-2.9789,-2.9784,-2.9789,-2.979,-2.9781,-2.9772,-2.977,-2.977,-2.9766,-2.9768,-2.978,-2.9773,-2.9727,-2.972,-2.9713,-2.9711,-2.978,-2.978,-2.9823,-2.9823,-2.9823]}]]